Weather History for Clemson, SC

Change the Weather History Date:

Monday, February 25, 2013

  Actual Average Record
Temperature  
Mean Temperature 44 °F -  
Max Temperature 50 °F 59 °F 82 °F (1930)
Min Temperature 37 °F 34 °F 9 °F (1967)
Degree Days  
Heating Degree Days 22    
Moisture  
Dew Point 28 °F    
Average Humidity 53    
Maximum Humidity 87    
Minimum Humidity 38    
Precipitation  
Precipitation 0.18 in - - ()
Sea Level Pressure  
Sea Level Pressure 30.04 in    
Wind  
Wind Speed 8 mph (ENE)    
Max Wind Speed 17 mph    
Max Gust Speed 24 mph    
Visibility 8 miles    
Events Rain    
Averages and records for this station are not official NWS values.
T = Trace of Precipitation, MM = Missing Value Source: NWS Daily Summary

Daily Weather History Graph

Daily Weather History Graph

Search for Another Location

Airport:

Trip Planner

Search our weather history database for the weather conditions in past years. The results will help you decide how hot, cold, wet, or windy it might be!

Date:

Astronomy

Feb. 25, 2013 Rise Set
Actual Time 7:05 AM EST 6:24 PM EST
Civil Twilight 6:39 AM EST 6:49 PM EST
Nautical Twilight 6:10 AM EST 7:18 PM EST
Astronomical Twilight 5:41 AM EST 7:48 PM EST
Moon 6:33 PM EST (2/25) 6:36 AM EST (2/25)
Length of Visible Light 12h 09m
Length of Day
11h 18m
Full, 100% of the Moon is Illuminated
Feb 25
Full
Feb 25
Full
Mar 4
Last Quarter
Mar 11
New
Mar 19
First Quarter

Hourly Weather History & Observations

Time (EST) Temp. Windchill Dew Point Humidity Pressure Visibility Wind Dir Wind Speed Gust Speed Precip Events Conditions
12:54 AM 46.0 °F 44.8 °F 30.9 °F 56% 29.98 in 10.0 mi NNE 3.5 mph - N/A   Clear
1:54 AM 45.0 °F 42.6 °F 30.0 °F 56% 29.99 in 10.0 mi NE 4.6 mph - N/A   Clear
2:54 AM 45.0 °F 42.6 °F 28.9 °F 53% 29.98 in 10.0 mi NE 4.6 mph - N/A   Clear
3:54 AM 45.0 °F 42.6 °F 27.0 °F 49% 30.00 in 10.0 mi NE 4.6 mph - N/A   Clear
4:54 AM 45.0 °F 41.2 °F 27.0 °F 49% 30.00 in 10.0 mi NE 6.9 mph - N/A   Clear
5:54 AM 44.1 °F 42.5 °F 28.0 °F 53% 30.04 in 10.0 mi NNE 3.5 mph - N/A   Clear
6:54 AM 44.1 °F 39.5 °F 28.0 °F 53% 30.05 in 10.0 mi ENE 8.1 mph - N/A   Clear
7:54 AM 45.0 °F 41.2 °F 24.1 °F 44% 30.09 in 10.0 mi ENE 6.9 mph - N/A   Clear
8:54 AM 46.0 °F 41.4 °F 23.0 °F 40% 30.12 in 10.0 mi ENE 9.2 mph 16.1 mph N/A   Clear
9:54 AM 46.0 °F 40.6 °F 23.0 °F 40% 30.13 in 10.0 mi ENE 11.5 mph 17.3 mph N/A   Clear
10:54 AM 46.0 °F 39.9 °F 24.1 °F 42% 30.11 in 10.0 mi ENE 13.8 mph 20.7 mph N/A   Clear
11:54 AM 46.9 °F - 24.1 °F 41% 30.10 in 10.0 mi East 8.1 mph - N/A   Clear
12:54 PM 48.9 °F - 25.0 °F 39% 30.07 in 10.0 mi NE 12.7 mph 23.0 mph N/A   Partly Cloudy
1:54 PM 48.9 °F - 25.0 °F 39% 30.05 in 10.0 mi ENE 10.4 mph - N/A   Overcast
2:54 PM 50.0 °F - 26.1 °F 39% 30.04 in 10.0 mi ENE 10.4 mph - N/A   Overcast
3:54 PM 50.0 °F - 25.0 °F 38% 30.03 in 10.0 mi ENE 17.3 mph 21.9 mph 0.14 in   Scattered Clouds
4:54 PM 48.9 °F - 26.1 °F 41% 30.02 in 10.0 mi East 11.5 mph - N/A   Overcast
5:14 PM 48.2 °F - 26.6 °F 43% 30.02 in 10.0 mi East 11.5 mph 18.4 mph N/A   Overcast
5:54 PM 48.0 °F - 27.0 °F 44% 30.01 in 10.0 mi East 9.2 mph - N/A   Overcast
6:54 PM 46.9 °F - 27.0 °F 46% 30.01 in 10.0 mi ENE 11.5 mph - N/A   Overcast
7:54 PM 46.0 °F 41.4 °F 27.0 °F 47% 30.02 in 10.0 mi ENE 9.2 mph 20.7 mph N/A   Overcast
8:54 PM 42.1 °F 35.2 °F 32.0 °F 67% 30.04 in 4.0 mi ENE 12.7 mph 24.2 mph 0.00 in Rain Light Rain
9:54 PM 39.9 °F 32.9 °F 34.0 °F 79% 30.04 in 4.0 mi ENE 11.5 mph - 0.02 in Rain Light Rain
10:27 PM 39.2 °F 32.5 °F 35.6 °F 87% 30.02 in 3.0 mi ENE 10.4 mph 17.3 mph 0.00 in Rain Light Rain
10:54 PM 39.0 °F 31.4 °F 35.1 °F 86% 30.03 in 3.0 mi ENE 12.7 mph - 0.01 in Rain Light Rain
11:54 PM 37.9 °F 30.0 °F 34.0 °F 86% 30.00 in 3.0 mi ENE 12.7 mph 19.6 mph 0.01 in Rain Light Rain
11:57 PM 37.4 °F 30.3 °F 33.8 °F 87% 29.99 in 2.5 mi ENE 10.4 mph 19.6 mph 0.00 in Rain Light Rain